Regional Weather Roundup
Issued by NWS

Home | Current Version | Previous Version | Graphics & Text | Print | Product List | Glossary Off
Versions: 1 2 3 4 5 6 7 8 9 10 11 12 13 14 15 16 17 18 19 20 21 22 23 24 25 26 27 28 29 30 31 32 33 34 35 36 37 38 39 40 41 42 43 44 45 46 47 48 49 50

000
ASUS43 KDTX 202201
RWRMI
MICHIGAN HOURLY REGIONAL WEATHER ROUNDUP
NATIONAL WEATHER SERVICE DETROIT/PONTIAC MI
500 PM EST SAT JAN 20 2018

NOTE: "FAIR" INDICATES FEW OR NO CLOUDS BELOW 12,000 FEET WITH NO
SIGNIFICANT WEATHER AND/OR OBSTRUCTION TO VISIBILITY.

MIZ047>049-052>055-059>063-066>070-074>076-081>083-202300-
SOUTHEAST LOWER MICHIGAN

CITY           SKY/WX    TMP DP  RH WIND       PRES   REMARKS
ADRIAN         FAIR      38  30  73 SW9       29.99R WCI  31
ALMA           FAIR      42  33  70 S5        29.93R
ANN ARBOR      FAIR      40  30  67 S10       29.96R WCI  33
BAD AXE        FAIR      38  32  77 SW5       29.93R WCI  35
CARO           FAIR      38  31  75 SW6       29.93S WCI  34
DETROIT CITY   FAIR      41  29  62 SW10      29.97R
DETROIT        MOCLDY    40  30  67 SW13      29.98R WCI  32
FLINT          FAIR      40  29  64 SW7       29.95R
GROSSE ILE     FAIR      40  31  70 SW7       29.97R WCI  35
HILLSDALE      FAIR      37  30  75 SW5       29.96R WCI  34
HOWELL         FAIR      41  31  68 SW6       29.95R

CITY           SKY/WX    TMP DP  RH WIND       PRES   REMARKS
JACKSON        FAIR      39  29  67 SW12      29.96R WCI  32
LAMBERTVILLE   FAIR      39  30  69 SW5       29.99S
LANSING        FAIR      42  31  64 SW9       29.95R
LAPEER         FAIR      41  29  62 W5        29.95R
MONROE         FAIR      38  30  72 SW8       29.98R WCI  32
MT. CLEMENS    MOCLDY    45  26  47 SW9       29.96R
PONTIAC        FAIR      42  31  64 W7        29.94R
PORT HOPE        N/A     40  31  70 SW3       29.91R
PORT HURON     FAIR      39  28  65 S5        29.95R
TRI CITIES     FAIR      40  33  76 SW6       29.93R
MIDLAND        FAIR      42  33  70 S8        29.92R
TROY           FAIR      42  30  61 SW9       29.97R
SAGINAW HB     FAIR      37  32  81 SW9       29.93S WCI  31
$$
MIZ043>046-050>051-056>058-064>065-071>073-077>080-202300-
SOUTHWEST LOWER MICHIGAN

CITY           SKY/WX    TMP DP  RH WIND       PRES   REMARKS
BATTLE CREEK   FAIR      39  30  70 S9        29.95R WCI  33
BENTON HARBOR  FAIR      41  30  65 S7        29.96R
BIG RAPIDS     FAIR      45  30  56 SW6       29.91R
COLDWATER      FAIR      38  31  77 SW7       29.97R WCI  32
FREMONT        FAIR      41  28  58 SW6       29.93R
HOLLAND        FAIR      39  30  70 SW8       29.96R WCI  33
GRAND RAPIDS   FAIR      42  30  62 W8        29.95R
IONIA          FAIR      41  31  68 SW6       29.93S
KALAMAZOO      FAIR      41  30  65 SW8       29.96R
LUDINGTON      FAIR      36  34  91 SW3       29.92S
MARSHALL       FAIR      39  29  68 SW7       29.96R WCI  34
MOUNT PLEASANT FAIR      45  32  60 SW8       29.92R
MUSKEGON       MOCLDY    38  31  76 S8        29.96R WCI  32
SOUTH HAVEN    FAIR      43  30  58 CALM      29.95R
$$
MIZ016>042-202300-
NORTHERN LOWER MICHIGAN

CITY           SKY/WX    TMP DP  RH WIND       PRES   REMARKS
ALPENA         MOCLDY    40  32  73 NW3       29.90R
BEAVER ISLAND  CLOUDY    36  32  85 SW5       29.90R WCI  32
BELLAIRE       FAIR      40  33  76 CALM      29.91R
CADILLAC       FAIR      41  31  67 SW7       29.90R
CHARLEVOIX     CLOUDY    38  32  79 CALM      29.93S
FRANKFORT      FAIR      38  34  84 CALM      29.93R
GAYLORD        FAIR      37  31  78 SW5       29.88R WCI  33
GRAYLING       FAIR      42  29  61 CALM      29.90R
HARBOR SPRINGS CLOUDY    37  32  82 CALM      29.91R
HOUGHTON LAKE  FAIR      39  30  70 SW5       29.90R
MANISTEE       FAIR      37  32  82 NW6       29.93R WCI  32
OSCODA         FAIR      39  29  68 SW6       29.89S WCI  35
PELLSTON       CLOUDY    38  31  76 CALM      29.90R
ROGERS CITY    CLOUDY    40  30  67 CALM      29.90R
TRAVERSE CITY  CLOUDY    41  32  70 E3        29.90R
$$
MIZ007>008-015-202300-
EASTERN UPPER MICHIGAN

CITY           SKY/WX    TMP DP  RH WIND       PRES   REMARKS
KINROSS        CLOUDY    39  28  64 W7        29.87R WCI  34
MACKINAC ISLAN FAIR      34  31  89 SW6       29.88S WCI  29
NEWBERRY       CLOUDY    36  32  84 CALM      29.86R
S. S. MARIE    CLOUDY    40  31  70 W6        29.86R
MUNISING         N/A     40  33  76 S6        29.87R
$$
MIZ004>006-011>014-085-202300-
CENTRAL UPPER MICHIGAN

CITY           SKY/WX    TMP DP  RH WIND       PRES   REMARKS
ESCANABA       CLOUDY    37  30  75 S3        29.90R
MENOMINEE      CLOUDY    41  30  65 SW3       29.91R
SAWYER-GWINN   PTCLDY    37  28  70 S6        29.85R WCI  33
$$
MIZ001>003-009>011-084-202300-
WESTERN UPPER MICHIGAN

CITY           SKY/WX    TMP DP  RH WIND       PRES   REMARKS
IRON MOUNTAIN  CLOUDY    38  30  73 CALM      29.86R
HOUGHTON       FAIR      38  28  67 W6        29.82R WCI  33
COPPER HARBOR    N/A     37  31  78 NW3       29.84R
IRONWOOD       FAIR      41  29  62 S5        29.84R
$$

ABBREVIATIONS USED IN REMARKS
   TC - TEMPERATURE IN CELSIUS
  WCI - WIND CHILL INDEX
   HX - HEAT INDEX
  VSB - VISIBILITY




USA.gov is the U.S. government's official web portal to all federal, state and local government web resources and services.